Location: Helsinki
(60.1699°N, 24.9384°E)
Time: 23:48:42
(UTC+02:00)

Altair - Pass Details

Date: 01 November 2020
Orbit: 1502 x 1682 km, 47.2° (Epoch: 25 November)

Event Time Altitude Azimuth Distance (km) Brightness Sun altitude
Rises 10:24:41 0° 276° (W) 4,731 9.8 12.6°
Reaches altitude 10° 10:28:35 10° 262° (W) 3,775 9.4 12.8°
Maximum altitude 10:35:18 22° 217° (SW) 2,974 9.6 13.1°
Drops below altitude 10° 10:42:12 10° 172° (S) 3,868 11.8 13.4°
Sets 10:46:17 0° 158° (SSE) 4,878 12.2 13.6°
